Location: Albuquerque Trailhead
(34.7934°N, 106.3736°W)
Time: 09:46:04
(UTC+00:00)

Exosat Rocket - Pass Details

Date: 23 October 2021
Orbit: 759 x 2516 km, 72.3° (Epoch: 08 December)

Event Time Altitude Azimuth Distance (km) Brightness Sun altitude
Rises 11:38:26 0° 197° (SSW) 4,166 7.1 -21.2°
Reaches altitude 10° 11:40:48 10° 197° (SSW) 3,385 6.6 -20.7°
Maximum altitude 11:49:18 90° 295° (WNW) 1,744 5.2 -18.9°
Drops below altitude 10° 12:01:40 10° 20° (NNE) 4,789 7.8 -16.4°
Sets 12:05:39 0° 21° (NNE) 5,966 8.3 -15.6°
